GW5507 Weather Reports


time (UTC)temp
F
wind
direction
speed
knots
gust
knots
rain 1hr
in
rain 24hr
in
rain mn
in
humidity
%
barometer
mb
20260510045337 54 239 0.9 0.9 0.19 0.10 0.10 99 1009.4
20260510044834 54 256 0.0 0.0 0.19 0.09 0.09 99 1009.6
20260510044331 54 257 0.0 0.0 0.12 0.07 0.07 99 1009.6
20260510043828 54 240 0.9 1.7 0.05 0.06 0.06 99 1009.3
20260510043323 54 257 0.0 0.0 0.00 0.05 0.05 99 1009.3
20260510042821 54 252 0.0 0.0 0.00 0.05 0.05 99 1009.1
20260510042317 54 244 0.9 0.9 0.07 0.05 0.05 99 1009.1
20260510041814 54 247 0.0 0.0 0.12 0.05 0.05 99 1009.4
20260510041311 54 264 0.0 0.9 0.17 0.04 0.04 99 1009.5
20260510040808 54 255 0.0 0.0 0.19 0.03 0.03 99 1009.3
20260510040305 54 253 0.0 0.0 0.07 0.01 0.01 99 1009.2
20260510035800 54 234 1.7 1.7 0.00 0.88 0.88 99 1008.7
20260510035256 54 248 0.9 0.9 0.05 0.88 0.88 99 1008.7
20260510034752 54 254 0.0 0.0 0.05 0.88 0.88 99 1008.5
20260510034250 54 262 0.0 0.0 0.00 0.87 0.87 99 1008.5
20260510033746 54 260 0.0 0.9 0.00 0.87 0.87 99 1007.9
20260510033244 54 275 0.0 0.0 0.00 0.87 0.87 99 1008.0
20260510032740 54 255 0.0 0.0 0.07 0.87 0.87 99 1007.9
20260510032236 54 250 2.6 2.6 0.19 0.87 0.87 99 1008.0
20260510031732 54 241 2.6 4.3 0.19 0.86 0.86 99 1008.0
20260510031227 54 247 0.0 0.9 0.12 0.84 0.84 99 1008.0
20260510030727 54 241 0.9 0.9 0.12 0.83 0.83 99 1008.2
20260510030225 54 247 0.9 0.9 0.07 0.82 0.82 99 1008.4
20260510025722 54 262 0.0 0.0 0.00 0.81 0.81 99 1008.8
20260510025219 54 259 0.0 0.0 0.00 0.81 0.81 99 1008.7
20260510024716 54 256 0.0 0.0 0.00 0.81 0.81 99 1008.4
20260510024212 54 256 0.0 0.0 0.00 0.81 0.81 99 1008.3
20260510023708 54 248 1.7 1.7 0.00 0.81 0.81 99 1008.6
20260510023205 54 266 0.0 0.9 0.05 0.81 0.81 99 1008.4
20260510022701 54 261 0.0 0.0 0.05 0.81 0.81 99 1008.3
20260510022156 54 245 0.0 0.9 0.07 0.80 0.80 99 1008.2
20260510021651 54 224 4.3 5.2 0.07 0.80 0.80 99 1008.5
20260510021149 54 235 0.9 1.7 0.12 0.79 0.79 99 1008.7
20260510020643 54 253 0.9 1.7 0.28 0.79 0.79 99 1008.6
20260510020139 54 250 0.9 0.9 0.28 0.77 0.77 99 1008.7
20260510015635 54 253 0.0 0.0 0.26 0.74 0.74 99 1009.2
20260510015132 54 257 0.0 0.0 0.31 0.72 0.72 99 1009.1
20260510014627 55 260 0.0 0.0 0.24 0.70 0.70 99 1008.8
20260510014125 55 255 0.0 0.0 0.12 0.67 0.67 99 1008.9
20260510013625 55 251 0.0 0.0 0.24 0.66 0.66 99 1009.1
20260510013120 55 257 0.0 0.0 0.35 0.65 0.65 98 1008.8
20260510012620 55 311 0.9 1.7 0.47 0.62 0.62 98 1009.1
20260510012117 55 267 0.9 0.9 0.85 0.59 0.59 97 1008.9
20260510011616 55 278 0.9 1.7 1.91 0.54 0.54 96 1008.3
20260510011112 56 342 2.6 2.6 1.42 0.46 0.46 93 1008.4
20260510010609 59 347 2.6 5.2 0.00 0.22 0.22 84 1007.9
20260510010106 61 358 2.6 4.3 0.00 0.22 0.22 77 1007.3
20260510005601 64 12 0.9 0.9 0.00 0.22 0.22 73 1007.0
20260510005059 64 251 0.0 0.0 0.00 0.22 0.22 68 1005.9
20260510004557 65 247 0.9 0.9 0.00 0.22 0.22 66 1006.2
20260510004055 65 256 0.0 0.9 0.00 0.22 0.22 65 1006.0
20260510003551 64 281 1.7 1.7 0.00 0.22 0.22 65 1006.1
20260510003047 65 255 0.9 1.7 0.00 0.22 0.22 65 1006.0
20260510002542 65 259 1.7 1.7 0.00 0.22 0.22 64 1005.8
20260510002040 65 252 0.0 0.9 0.00 0.22 0.22 64 1005.9
20260510001537 65 253 0.9 1.7 0.00 0.22 0.22 64 1005.7
20260510001035 65 252 2.6 4.3 0.00 0.22 0.22 65 1005.7
20260510000530 65 245 0.9 0.9 0.00 0.22 0.22 64 1005.5
20260510000027 66 265 2.6 2.6 0.00 0.22 0.22 64 1005.6
20260509235524 65 247 3.5 5.2 0.00 0.22 0.22 63 1005.6
20260509235021 66 250 0.0 0.9 0.00 0.22 0.22 64 1005.4
20260509234517 66 222 0.9 1.7 0.00 0.22 0.22 63 1005.3
20260509234015 66 255 2.6 4.3 0.00 0.22 0.22 63 1005.4
20260509233512 66 283 1.7 4.3 0.00 0.22 0.22 63 1005.3
20260509233009 66 257 0.0 0.9 0.00 0.22 0.22 64 1005.0
20260509232506 67 217 4.3 6.1 0.00 0.22 0.22 62 1005.0
20260509232002 67 257 0.0 0.0 0.00 0.22 0.22 61 1004.8
20260509231459 67 203 2.6 2.6 0.00 0.22 0.22 60 1005.0
20260509230956 67 217 4.3 6.1 0.00 0.22 0.22 62 1005.1
20260509230453 67 256 0.9 0.9 0.00 0.22 0.22 62 1005.0
20260509225949 67 294 3.5 4.3 0.00 0.22 0.22 61 1005.1
20260509225446 68 266 0.9 0.9 0.00 0.22 0.22 61 1005.4
20260509224941 68 204 2.6 2.6 0.00 0.22 0.22 60 1005.3
20260509224437 68 209 3.5 5.2 0.00 0.22 0.22 59 1005.1
20260509223934 68 257 2.6 2.6 0.00 0.22 0.22 59 1005.1
20260509223431 68 245 1.7 2.6 0.00 0.22 0.22 59 1004.7
20260509222929 68 234 0.9 1.7 0.00 0.22 0.22 59 1004.9
20260509222423 68 271 1.7 2.6 0.00 0.22 0.22 59 1004.9
20260509221919 68 259 4.3 7.0 0.00 0.22 0.22 58 1004.8
20260509221416 68 288 2.6 5.2 0.00 0.22 0.22 59 1004.9
20260509220912 68 251 1.7 1.7 0.00 0.22 0.22 59 1005.0
20260509220408 68 255 1.7 2.6 0.00 0.22 0.22 60 1005.4
20260509215904 69 252 0.9 0.9 0.00 0.22 0.22 59 1005.3
20260509215400 68 262 0.9 0.9 0.00 0.22 0.22 60 1005.0
20260509214858 68 235 0.9 1.7 0.00 0.22 0.22 59 1005.1
20260509214355 68 216 4.3 5.2 0.00 0.22 0.22 57 1005.3
20260509213852 69 241 1.7 1.7 0.00 0.22 0.22 59 1005.3
20260509213347 69 274 2.6 4.3 0.00 0.22 0.22 58 1005.4
20260509212845 69 200 3.5 4.3 0.00 0.22 0.22 58 1005.4
20260509212342 70 268 0.9 1.7 0.00 0.22 0.22 59 1005.3
20260509211838 70 250 0.9 0.9 0.00 0.22 0.22 58 1005.5
20260509211334 70 207 5.2 6.1 0.00 0.22 0.22 56 1005.4
20260509210831 71 252 5.2 7.0 0.00 0.22 0.22 56 1005.3
20260509210329 70 270 0.9 0.9 0.00 0.22 0.22 59 1005.3
20260509205828 70 239 0.9 0.9 0.00 0.22 0.22 60 1005.6
20260509205323 69 248 2.6 2.6 0.00 0.22 0.22 60 1005.7
20260509204820 70 285 4.3 4.3 0.00 0.22 0.22 59 1005.7
20260509204316 70 256 2.6 5.2 0.00 0.22 0.22 58 1005.8
20260509203812 70 234 2.6 2.6 0.00 0.22 0.22 58 1006.0
20260509203309 69 257 1.7 2.6 0.00 0.22 0.22 59 1005.9
20260509202805 68 263 2.6 5.2 0.00 0.22 0.22 60 1006.1
20260509202305 69 264 3.5 4.3 0.00 0.22 0.22 59 1006.3
20260509201801 68 258 0.0 0.9 0.00 0.22 0.22 65 1006.2
20260509201258 68 216 7.8 9.6 0.00 0.22 0.22 60 1006.0
20260509200754 68 226 1.7 2.6 0.00 0.22 0.22 63 1006.2
20260509200249 68 257 1.7 1.7 0.00 0.22 0.22 63 1006.4
20260509195747 68 255 0.9 0.9 0.00 0.22 0.22 64 1006.4
20260509195242 68 254 0.9 1.7 0.00 0.22 0.22 63 1006.5
20260509194742 67 223 4.3 5.2 0.00 0.22 0.22 64 1006.7
20260509194238 68 256 1.7 1.7 0.00 0.22 0.22 63 1006.7
20260509193735 66 244 2.6 2.6 0.00 0.22 0.22 65 1006.7
20260509193235 67 226 2.6 4.3 0.00 0.22 0.22 65 1006.9
20260509192731 68 258 0.9 0.9 0.00 0.22 0.22 63 1006.8
20260509192226 68 241 0.9 0.9 0.00 0.22 0.22 63 1006.8
20260509191722 68 280 8.7 13.9 0.00 0.22 0.22 63 1006.3
20260509191219 68 217 3.5 5.2 0.00 0.22 0.22 64 1006.8
20260509190715 66 228 3.5 5.2 0.00 0.22 0.22 66 1007.0
20260509190212 66 262 2.6 4.3 0.00 0.22 0.22 66 1007.0
20260509185710 69 261 1.7 1.7 0.00 0.22 0.22 68 1007.0
20260509185206 67 225 1.7 2.6 0.00 0.22 0.22 68 1006.9
20260509184703 67 269 1.7 2.6 0.00 0.22 0.22 71 1007.0
20260509184200 66 236 4.3 5.2 0.00 0.22 0.22 70 1006.8
20260509183656 66 240 1.7 1.7 0.00 0.22 0.22 69 1006.9
20260509183152 66 258 0.9 1.7 0.00 0.22 0.22 73 1006.8
20260509182647 65 258 1.7 2.6 0.00 0.22 0.22 73 1007.2
20260509182145 65 239 0.9 1.7 0.00 0.22 0.22 75 1007.1
20260509181643 65 212 1.7 2.6 0.00 0.22 0.22 74 1007.1
20260509181141 64 243 0.9 1.7 0.00 0.22 0.22 78 1007.0
20260509180637 63 251 0.9 1.7 0.00 0.22 0.22 79 1007.2
20260509180133 64 227 2.6 4.3 0.00 0.22 0.22 79 1007.3
20260509175629 64 218 4.3 6.1 0.00 0.22 0.22 78 1007.3
20260509175126 64 241 4.3 6.1 0.00 0.22 0.22 77 1007.2
20260509174622 63 252 0.9 0.9 0.00 0.22 0.22 81 1007.4
20260509174117 63 268 1.7 1.7 0.00 0.22 0.22 79 1007.2
20260509173613 63 252 0.9 1.7 0.00 0.22 0.22 80 1007.0
20260509173109 62 253 0.0 0.9 0.00 0.22 0.22 81 1007.1
20260509172606 63 244 2.6 4.3 0.00 0.22 0.22 79 1007.3
20260509172102 62 253 0.0 0.9 0.00 0.22 0.22 86 1007.3
20260509171558 62 270 0.9 0.9 0.00 0.22 0.22 84 1007.5
20260509171054 62 260 0.0 0.0 0.00 0.22 0.22 86 1007.4
20260509170550 61 245 0.9 0.9 0.00 0.22 0.22 85 1007.4
20260509170047 61 250 0.0 0.9 0.00 0.22 0.22 85 1007.4
20260509165545 60 261 0.9 0.9 0.00 0.22 0.22 87 1007.5
20260509165041 59 226 2.6 2.6 0.00 0.22 0.22 88 1007.4
20260509164537 59 254 0.0 0.0 0.00 0.22 0.22 90 1007.5
20260509164033 59 251 0.9 0.9 0.00 0.22 0.22 90 1007.7
20260509163531 59 274 0.9 1.7 0.00 0.22 0.22 92 1007.5
20260509163026 58 255 0.0 0.9 0.00 0.22 0.22 93 1007.5
20260509162524 57 256 0.9 0.9 0.00 0.22 0.22 93 1007.5
20260509162019 57 250 0.9 0.9 0.00 0.22 0.22 93 1007.7
20260509161516 57 222 2.6 2.6 0.00 0.22 0.22 93 1007.5
20260509161011 58 261 0.9 0.9 0.00 0.22 0.22 94 1007.6
20260509160507 57 253 0.9 0.9 0.00 0.22 0.22 95 1007.5
20260509160003 56 263 3.5 4.3 0.00 0.22 0.22 95 1007.4
20260509155459 56 241 0.9 1.7 0.00 0.22 0.22 97 1007.5
20260509154955 55 254 0.9 1.7 0.00 0.22 0.22 97 1007.4
20260509154451 55 241 0.9 1.7 0.00 0.22 0.22 98 1007.6
20260509153949 55 236 1.7 2.6 0.00 0.22 0.22 99 1007.5
20260509153446 55 252 2.6 5.2 0.00 0.22 0.22 99 1007.3
20260509152943 56 221 2.6 4.3 0.00 0.22 0.22 99 1007.2
20260509152438 55 250 1.7 1.7 0.00 0.22 0.22 99 1007.3
20260509151936 55 232 0.9 1.7 0.00 0.22 0.22 99 1007.4
20260509151432 55 237 1.7 2.6 0.00 0.22 0.22 99 1007.3
20260509150930 54 268 1.7 2.6 0.00 0.22 0.22 99 1007.6
20260509150427 53 254 0.0 0.0 0.00 0.22 0.22 99 1007.4
20260509145926 53 245 0.0 0.9 0.00 0.22 0.22 99 1007.4
20260509145425 53 229 0.9 1.7 0.00 0.22 0.22 99 1007.5
20260509144921 53 253 1.7 1.7 0.00 0.22 0.22 99 1007.4
20260509144418 53 256 0.0 0.0 0.07 0.22 0.22 99 1007.4
20260509143915 53 256 1.7 2.6 0.07 0.22 0.22 99 1007.4
20260509143412 53 250 0.0 0.0 0.12 0.21 0.21 99 1007.6
20260509142908 52 251 0.9 0.9 0.19 0.21 0.21 99 1007.5
20260509142405 53 246 0.0 0.0 0.07 0.19 0.19 99 1007.5
20260509141901 52 244 0.0 0.9 0.00 0.18 0.18 99 1007.5
20260509141358 52 256 0.0 0.0 0.00 0.18 0.18 99 1007.5
20260509140854 52 255 0.9 0.9 0.00 0.18 0.18 99 1007.5
20260509140351 52 253 0.0 0.0 0.00 0.18 0.18 99 1007.4
20260509135849 52 251 0.0 0.0 0.00 0.18 0.18 99 1007.5
20260509135346 52 243 0.0 0.9 0.00 0.18 0.18 99 1007.5
20260509134844 52 256 0.9 0.9 0.00 0.18 0.18 99 1007.5
20260509134341 52 248 0.9 1.7 0.00 0.18 0.18 99 1007.6
20260509133837 52 240 0.9 0.9 0.00 0.18 0.18 99 1007.5
20260509133334 52 260 0.9 0.9 0.00 0.18 0.18 99 1007.6
20260509132833 52 269 0.0 0.9 0.00 0.18 0.18 99 1007.7
20260509132331 51 255 0.0 0.0 0.00 0.18 0.18 99 1007.7
20260509131828 51 247 0.0 0.0 0.00 0.18 0.18 99 1007.6
20260509131324 51 268 0.0 0.0 0.00 0.18 0.18 99 1007.8
20260509130821 51 261 0.9 0.9 0.00 0.18 0.18 99 1007.6
20260509130317 51 257 0.0 0.0 0.00 0.18 0.18 99 1007.5
20260509125814 51 213 3.5 5.2 0.00 0.18 0.18 99 1007.5
20260509125310 51 246 0.9 0.9 0.00 0.18 0.18 99 1007.7
20260509124806 51 252 0.0 0.9 0.00 0.18 0.18 99 1007.6
20260509124303 51 254 0.9 0.9 0.00 0.18 0.18 99 1007.7
20260509123801 51 254 1.7 1.7 0.00 0.18 0.18 99 1007.7
20260509123258 51 245 0.9 0.9 0.00 0.18 0.18 99 1007.8
20260509122754 51 248 0.0 0.0 0.00 0.18 0.18 99 1007.5
20260509122252 50 253 0.0 0.0 0.00 0.18 0.18 99 1007.8
20260509121748 50 252 0.0 0.0 0.00 0.18 0.18 99 1007.7
20260509121245 50 255 0.0 0.0 0.00 0.18 0.18 99 1007.9
20260509120743 50 253 0.0 0.0 0.00 0.18 0.18 99 1007.8
20260509120241 50 253 0.0 0.0 0.00 0.18 0.18 99 1007.7
20260509115739 50 255 0.0 0.0 0.00 0.18 0.18 99 1008.0
20260509115235 50 257 0.0 0.0 0.00 0.18 0.18 99 1007.8
20260509114734 50 254 0.0 0.0 0.00 0.18 0.18 99 1007.9
20260509114232 50 256 0.0 0.0 0.00 0.18 0.18 99 1007.6
20260509113731 50 251 0.0 0.0 0.00 0.18 0.18 99 1007.7
20260509113228 50 255 0.0 0.0 0.05 0.18 0.18 99 1007.5
20260509112724 49 250 0.0 0.0 0.05 0.18 0.18 99 1007.7
20260509112222 49 250 0.0 0.9 0.00 0.17 0.17 99 1007.9
20260509111718 49 237 0.0 0.9 0.00 0.17 0.17 99 1007.7
20260509111215 49 251 0.0 0.0 0.00 0.17 0.17 99 1007.5
20260509110713 49 250 0.0 0.0 0.00 0.17 0.17 99 1007.7
20260509110209 49 257 0.9 1.7 0.00 0.17 0.17 99 1007.6
20260509105708 49 246 0.9 0.9 0.00 0.17 0.17 99 1007.5
20260509105204 49 244 0.9 0.9 0.00 0.17 0.17 99 1007.8
20260509104701 49 242 0.9 0.9 0.07 0.17 0.17 99 1007.5
20260509104158 49 251 0.0 0.0 0.07 0.17 0.17 99 1007.6
20260509103656 49 250 0.0 0.0 0.00 0.16 0.16 99 1007.8
20260509103153 49 250 0.0 0.9 0.00 0.16 0.16 99 1007.7
20260509102651 49 243 1.7 1.7 0.05 0.16 0.16 99 1007.5
20260509102148 49 246 0.0 0.9 0.05 0.16 0.16 99 1007.6
20260509101644 49 245 0.0 0.0 0.00 0.15 0.15 99 1007.5
20260509101141 49 248 0.0 0.0 0.07 0.15 0.15 99 1007.8
20260509100638 49 255 0.0 0.0 0.07 0.15 0.15 99 1007.8
20260509100135 49 259 0.0 0.0 0.00 0.14 0.14 99 1007.8
20260509095631 49 253 0.0 0.0 0.00 0.14 0.14 99 1007.8
20260509095129 49 248 0.0 0.0 0.00 0.14 0.14 99 1007.6
20260509094625 49 250 0.0 0.0 0.05 0.14 0.14 99 1007.8
20260509094122 49 250 0.0 0.0 0.05 0.14 0.14 99 1007.9
20260509093622 49 240 0.9 1.7 0.07 0.13 0.13 99 1008.0
20260509093118 49 243 0.9 0.9 0.07 0.13 0.13 99 1008.1
20260509092616 49 254 0.0 0.9 0.00 0.12 0.12 99 1008.4
20260509092114 49 254 0.0 0.9 0.05 0.12 0.12 99 1008.2
20260509091611 49 250 0.0 0.0 0.05 0.12 0.12 99 1008.4
20260509091107 49 254 0.0 0.0 0.00 0.11 0.11 99 1008.0
20260509090605 49 251 0.0 0.0 0.07 0.11 0.11 99 1008.1
20260509090057 49 250 0.0 0.0 0.07 0.11 0.11 99 1008.2
20260509085554 49 251 0.0 0.0 0.05 0.10 0.10 99 1008.4
20260509085050 49 251 0.0 0.0 0.05 0.10 0.10 99 1008.4
20260509084548 49 250 0.0 0.0 0.07 0.09 0.09 99 1008.4
20260509084045 49 250 0.0 0.0 0.07 0.09 0.09 99 1008.3
20260509083542 49 256 0.0 0.0 0.07 0.08 0.08 99 1008.3
20260509083038 49 253 0.0 0.0 0.07 0.08 0.08 99 1008.6
20260509082536 49 249 0.0 0.0 0.00 0.07 0.07 99 1008.5
20260509082033 49 259 1.7 1.7 0.05 0.07 0.07 99 1008.6
20260509081530 49 244 0.0 0.0 0.05 0.07 0.07 99 1008.7
20260509081027 49 250 0.0 0.0 0.12 0.06 0.06 99 1008.7
20260509080525 49 251 0.0 0.0 0.19 0.06 0.06 99 1008.7
20260509080023 49 253 0.0 0.0 0.07 0.04 0.04 99 1008.8
20260509075520 49 255 0.0 0.0 0.00 0.03 0.03 99 1008.7
20260509075018 49 255 0.0 0.0 0.00 0.03 0.03 99 1008.8
20260509074515 49 251 0.0 0.0 0.00 0.03 0.03 99 1008.7
20260509074011 49 250 0.0 0.0 0.00 0.03 0.03 99 1008.7
20260509073508 49 250 0.0 0.0 0.00 0.03 0.03 99 1008.6
20260509073004 49 250 0.0 0.0 0.05 0.03 0.03 99 1008.5
20260509072501 49 248 0.0 0.0 0.05 0.03 0.03 99 1008.5
20260509071957 49 252 0.0 0.0 0.05 0.03 0.03 99 1008.4
20260509071454 49 254 0.0 0.0 0.00 0.02 0.02 99 1008.5
20260509070952 49 254 0.0 0.0 0.00 0.02 0.02 99 1008.6
20260509070449 49 255 0.0 0.0 0.00 0.02 0.02 99 1008.6
20260509065944 49 255 0.0 0.0 0.00 0.02 0.02 99 1008.6
20260509065440 49 255 0.0 0.0 0.00 0.02 0.02 99 1008.6
20260509064936 49 255 0.0 0.0 0.00 0.02 0.02 99 1008.6
20260509064434 49 255 0.0 0.0 0.00 0.02 0.02 99 1008.5
20260509063932 49 254 0.0 0.0 0.00 0.02 0.02 99 1008.4
20260509063427 49 253 0.0 0.0 0.00 0.02 0.02 99 1008.6
20260509062924 49 254 0.0 0.0 0.00 0.02 0.02 99 1008.7
20260509062421 49 254 0.0 0.0 0.00 0.02 0.02 99 1008.7
20260509061919 49 254 0.0 0.0 0.00 0.02 0.02 99 1009.1
20260509061417 49 254 0.0 0.0 0.00 0.02 0.02 99 1008.9
20260509060913 49 254 0.0 0.0 0.00 0.02 0.02 99 1009.2
20260509060410 49 254 0.0 0.0 0.07 0.02 0.02 99 1009.2
20260509055905 49 254 0.0 0.0 0.07 0.02 0.02 99 1009.4
20260509055401 49 255 0.0 0.0 0.00 0.01 0.01 99 1009.2
20260509054858 49 255 0.0 0.0 0.00 0.01 0.01 99 1009.4
20260509054355 49 255 0.0 0.0 0.00 0.01 0.01 99 1009.3
20260509053853 49 255 0.0 0.0 0.00 0.01 0.01 99 1009.5
20260509053350 49 256 0.0 0.0 0.00 0.01 0.01 99 1009.6
20260509052849 49 255 0.0 0.0 0.00 0.01 0.01 99 1009.4
20260509052346 49 255 0.0 0.0 0.00 0.01 0.01 99 1009.6
20260509051843 49 254 0.0 0.0 0.00 0.01 0.01 99 1009.7
20260509051341 49 255 0.0 0.0 0.00 0.01 0.01 99 1009.8
20260509050837 49 256 0.0 0.0 0.00 0.01 0.01 99 1009.7
20260509050334 49 255 0.0 0.0 0.00 0.01 0.01 99 1010.0
20260509045831 49 255 0.0 0.0 0.00 0.01 0.01 99 1009.8